Change the Weather History Date:

Wednesday, April 11, 2012

  Actual Average Record
Temperature  
Mean Temperature 56 °F 58 °F  
Max Temperature 61 °F 68 °F 88 °F (2008)
Min Temperature 51 °F 48 °F 34 °F (1953)
Degree Days  
Heating Degree Days 9 7  
Month to date heating degree days 87 82  
Since 1 July heating degree days 1447 1695  
Cooling Degree Days 0 0  
Month to date cooling degree days 0 0  
Year to date cooling degree days 11 13  
Growing Degree Days 6 (Base 50)    
Moisture  
Dew Point 50 °F    
Average Humidity 78    
Maximum Humidity 96    
Minimum Humidity 60    
Precipitation  
Precipitation 0.73 in 0.02 in 1.41 in (1999)
Month to date precipitation 0.96 0.22  
Year to date precipitation 4.94 10.05  
Since 1 July precipitation 7.97 14.29  
Sea Level Pressure  
Sea Level Pressure 29.97 in    
Wind  
Wind Speed 8 mph (SW)    
Max Wind Speed 18 mph    
Max Gust Speed 23 mph    
Visibility 7 miles    
Events Rain    
T = Trace of Precipitation, MM = Missing Value Source: NWS Daily Summary

Daily Weather History Graph

Daily Weather History Graph

Search for Another Location

Airport or City:

Trip Planner

Search our weather history database for the weather conditions in past years. The results will help you decide how hot, cold, wet, or windy it might be!

Date:

Astronomy

Apr. 11, 2012 Rise Set
Actual Time 6:29 AM PDT 7:25 PM PDT
Civil Twilight 6:03 AM PDT 7:51 PM PDT
Nautical Twilight 5:33 AM PDT 8:21 PM PDT
Astronomical Twilight 5:02 AM PDT 8:52 PM PDT
Moon 12:15 AM PDT (4/11) 10:33 AM PDT (4/11)
Length of Visible Light 13h 47m
Length of Day
12h 55m
Waning Gibbous, 68% of the Moon is Illuminated
Apr 11
Waning Gibbous
Apr 13
Last Quarter
Apr 21
New
Apr 29
First Quarter
May 5
Full

Hourly Weather History & Observations

Time (PDT) Temp. Dew Point Humidity Pressure Visibility Wind Dir Wind Speed Gust Speed Precip Events Conditions
12:55 AM 55.0 °F 51.1 °F 86% 29.89 in 10.0 mi ENE 12.7 mph - 0.02 in Rain Light Rain
1:53 AM 53.6 °F 51.8 °F 94% 29.85 in 2.5 mi ENE 4.6 mph - 0.12 in Rain Heavy Rain
1:54 AM 54.0 °F 52.0 °F 93% 29.88 in 2.5 mi ENE 4.6 mph - 0.12 in Rain Heavy Rain
2:15 AM 53.6 °F 51.8 °F 94% 29.84 in 3.0 mi NE 5.8 mph - 0.10 in Rain Heavy Rain
2:22 AM 53.6 °F 51.8 °F 94% 29.84 in 2.0 mi ENE 5.8 mph - 0.14 in Rain Heavy Rain
2:29 AM 53.6 °F 51.8 °F 94% 29.84 in 2.5 mi NE 5.8 mph - 0.17 in Rain Rain
2:41 AM 53.6 °F 51.8 °F 94% 29.84 in 2.5 mi Variable 3.5 mph - 0.22 in Rain Light Rain
2:55 AM 55.0 °F 52.0 °F 89% 29.86 in 10.0 mi SSE 9.2 mph 16.1 mph 0.22 in   Overcast
3:03 AM 55.4 °F 51.8 °F 88% 29.83 in 10.0 mi South 12.7 mph 18.4 mph N/A   Overcast
3:23 AM 51.8 °F 50.0 °F 94% 29.85 in 1.8 mi WSW 11.5 mph - 0.09 in Rain Heavy Rain
3:30 AM 51.8 °F 50.0 °F 94% 29.86 in 1.2 mi SSW 9.2 mph 17.3 mph 0.19 in Rain Heavy Rain
3:40 AM 51.8 °F 51.8 °F 100% 29.85 in 2.0 mi SW 8.1 mph - 0.25 in Rain Heavy Rain
3:49 AM 51.8 °F 51.8 °F 100% 29.85 in 3.0 mi SSW 3.5 mph - 0.28 in Rain Rain
3:55 AM 52.0 °F 50.0 °F 93% 29.88 in 3.0 mi SW 4.6 mph - 0.29 in Rain Rain
4:04 AM 51.8 °F 51.8 °F 100% 29.86 in 2.0 mi Calm Calm - 0.06 in Rain Heavy Rain
4:15 AM 51.8 °F 50.0 °F 94% 29.86 in 4.0 mi SSE 5.8 mph - 0.07 in Rain Light Rain
4:42 AM 51.8 °F 50.0 °F 94% 29.85 in 9.0 mi Calm Calm - 0.07 in Rain Light Rain
4:55 AM 51.1 °F 50.0 °F 96% 29.89 in 5.0 mi SSE 6.9 mph - 0.10 in Rain Rain
5:55 AM 51.1 °F 50.0 °F 96% 29.91 in 10.0 mi SSW 3.5 mph - 0.00 in   Mostly Cloudy
6:39 AM 51.8 °F 48.2 °F 88% 29.90 in 10.0 mi South 4.6 mph - N/A   Mostly Cloudy
6:55 AM 51.1 °F 48.9 °F 92% 29.94 in 10.0 mi South 4.6 mph - N/A   Mostly Cloudy
7:55 AM 53.1 °F 50.0 °F 89% 29.97 in 10.0 mi West 10.4 mph - N/A   Overcast
8:55 AM 54.0 °F 51.1 °F 90% 30.00 in 10.0 mi West 10.4 mph - N/A   Overcast
10:36 AM 55.4 °F 51.8 °F 88% 30.02 in 6.0 mi West 13.8 mph - 0.00 in Rain Light Rain
10:44 AM 55.4 °F 51.8 °F 88% 30.02 in 10.0 mi West 11.5 mph - 0.00 in   Mostly Cloudy
11:55 AM 57.9 °F 50.0 °F 75% 30.06 in 10.0 mi West 11.5 mph - N/A   Mostly Cloudy
12:55 PM 60.1 °F 48.9 °F 67% 30.06 in 10.0 mi WSW 12.7 mph - N/A   Partly Cloudy
1:55 PM 61.0 °F 46.9 °F 60% 30.08 in 10.0 mi WSW 15.0 mph 20.7 mph N/A   Clear
2:55 PM 60.1 °F 46.0 °F 60% 30.07 in 10.0 mi West 11.5 mph - N/A   Mostly Cloudy
3:55 PM 59.0 °F 46.9 °F 64% 30.08 in 10.0 mi WSW 12.7 mph - N/A   Scattered Clouds
4:55 PM 57.9 °F 48.0 °F 70% 30.07 in 10.0 mi West 9.2 mph - N/A   Scattered Clouds
5:55 PM 57.0 °F 48.0 °F 72% 30.09 in 10.0 mi West 11.5 mph - N/A   Scattered Clouds
6:55 PM 55.9 °F 48.9 °F 77% 30.10 in 10.0 mi WSW 9.2 mph - N/A   Scattered Clouds
7:55 PM 55.0 °F 48.9 °F 80% 30.12 in 10.0 mi WSW 6.9 mph - N/A   Clear
8:55 PM 54.0 °F 48.9 °F 83% 30.13 in 10.0 mi Calm Calm - N/A   Scattered Clouds
9:55 PM 52.0 °F 48.9 °F 89% 30.14 in 10.0 mi WSW 4.6 mph - N/A   Partly Cloudy
10:40 PM 53.6 °F 50.0 °F 88% 30.12 in 10.0 mi West 3.5 mph - N/A   Mostly Cloudy
10:55 PM 53.1 °F 50.0 °F 89% 30.15 in 10.0 mi Calm Calm - N/A   Mostly Cloudy
11:25 PM 51.8 °F 48.2 °F 88% 30.13 in 10.0 mi Calm Calm - N/A   Scattered Clouds
11:37 PM 53.6 °F 50.0 °F 88% 30.13 in 10.0 mi SW 3.5 mph - N/A   Mostly Cloudy
11:55 PM 53.1 °F 50.0 °F 89% 30.16 in 10.0 mi Calm Calm - N/A   Scattered Clouds